Location: Unspecified
(52.0178°N, 0.0000°E)
Time: 06:45:46
(UTC+00:00)

O/OREOS (USA 219) - Pass Details

Date: 30 July 2019
Orbit: 621 x 646 km, 72.0° (Epoch: 22 May)

Event Time Altitude Azimuth Distance (km) Brightness Sun altitude
Exits shadow 01:49:02 16° 157° (SSE) 1,660 ? -15.9°
Maximum altitude 01:51:50 29° 106° (ESE) 1,163 ? -15.7°
Drops below altitude 10° 01:55:46 10° 47° (NE) 2,026 ? -15.5°
Sets 01:58:14 0° 36° (NE) 2,935 ? -15.3°
